Temperature
15 16 16 16 16 15 15 14 14 15 15 15 15 15 15 16 16 16 16 17 17 17 17 17 17 17 17 17 16 16 16 15 15 15 15 14 14 14 13 13 13 13 12 12
15 15 15 15 15 15 15 15 14 15 15 15 15 15 15 16 16 16 16 16 16 17 17 17 17 17 16 16 16 16 15 15 15 15 14 14 14 13 13 13 12 12 12 12
13 14 15 14 15 15 15 14 15 15 15 14 14 14 15 15 15 16 16 16 16 16 16 16 16 16 16 16 15 15 15 15 14 14 14 13 13 13 12 12 12 12 12 11
12 14 14 15 15 15 15 14 14 14 14 14 14 15 15 16 16 16 16 16 16 16 16 16 16 16 16 15 15 15 14 14 14 14 13 13 13 12 12 12 12 11 11 11
11 12 13 14 14 14 14 14 14 14 13 14 14 14 14 15 16 16 16 16 16 16 16 15 15 15 15 15 15 14 14 14 14 13 13 13 13 12 12 11 11 11 11 11
10 12 13 14 15 15 14 14 14 13 13 13 13 12 13 15 15 15 15 15 15 15 15 15 15 15 14 14 14 14 14 14 13 13 12 12 12 12 11 11 11 11 10 10
10 11 12 13 14 14 14 13 14 14 14 14 13 14 15 15 15 15 15 15 15 14 14 14 14 14 14 14 14 13 13 13 13 12 12 12 11 11 11 11 10 10 10 10
9 10 12 13 13 13 13 14 14 14 14 14 14 14 14 15 15 14 14 14 14 14 14 13 13 13 13 13 13 13 12 12 12 12 11 11 11 11 11 10 10 10 10 9
10 11 12 13 13 14 14 14 14 14 14 14 14 14 14 14 14 14 14 14 14 13 13 13 13 13 13 13 12 12 12 11 11 11 11 11 10 10 10 10 9 9 9 9
9 10 11 13 13 14 14 14 14 14 14 14 14 14 13 13 13 13 13 13 13 13 13 12 12 12 12 12 11 11 11 11 10 10 10 10 10 9 9 9 9 9 9 9
9 10 11 12 13 13 14 14 14 14 14 13 13 13 13 13 13 13 12 12 12 12 12 12 12 11 11 11 11 10 10 10 10 10 9 9 9 9 9 9 8 8 8 8
10 11 10 12 13 13 13 13 13 13 13 13 13 13 12 12 12 12 12 12 12 11 11 11 11 11 10 10 10 10 10 10 9 9 9 9 8 8 8 8 8 7 7 7
12 12 12 12 12 12 12 12 12 12 12 12 12 12 12 12 12 11 11 11 11 11 11 11 10 10 10 10 9 9 9 9 9 9 8 8 8 8 8 7 7 7 7 7
11 11 11 11 11 11 11 11 11 11 11 11 11 11 11 11 11 11 11 11 11 10 10 10 10 10 9 9 9 9 9 9 8 8 8 8 8 7 7 7 7 7 6 6
11 11 11 11 11 10 10 11 11 11 11 11 11 11 10 10 10 10 10 10 10 10 10 10 9 9 9 9 9 8 8 8 8 8 7 7 7 7 6 6 6 6 6 6
10 10 10 10 10 10 10 10 10 10 10 10 10 10 10 10 10 10 10 10 9 9 9 9 9 9 8 8 8 8 8 8 7 7 7 7 6 6 6 6 5 5 5 5
9 9 9 9 9 9 9 9 9 9 9 9 9 9 9 9 9 9 9 9 9 9 9 9 8 8 8 8 8 8 7 7 7 6 6 6 6 6 5 5 5 5 4 4
9 9 9 9 9 9 9 9 9 9 9 9 9 9 9 9 8 8 8 8 8 8 8 8 8 7 7 7 7 7 6 6 6 6 5 5 5 5 5 4 4 4 4 3
8 8 8 8 8 8 8 8 8 8 8 8 8 8 8 8 8 8 8 8 8 8 7 7 7 7 7 6 6 6 6 5 5 5 5 4 4 4 4 4 4 3 3 3
8 8 8 8 8 8 8 8 8 8 8 8 8 8 8 8 8 7 7 7 7 7 7 6 6 6 6 6 5 5 5 5 4 4 4 4 4 3 3 3 3 2 2 2
8 8 8 7 7 7 7 7 7 7 7 7 7 7 7 7 7 7 7 7 6 6 6 6 5 5 5 5 5 5 4 4 4 4 4 3 3 3 3 2 2 2 2 2
7 7 7 7 7 7 7 7 7 7 7 7 6 6 6 6 6 6 6 6 6 5 5 5 5 5 4 4 4 4 4 3 3 3 3 3 3 2 2 2 2 1 1 1
7 7 7 7 7 6 6 6 6 6 6 6 6 6 6 6 5 5 5 5 5 5 5 4 4 4 4 4 4 3 3 3 3 3 3 2 2 2 2 1 1 1 1 1
6 6 6 6 6 6 6 6 6 5 5 6 5 5 5 5 5 5 4 4 4 4 4 4 4 3 3 3 3 3 3 3 2 2 2 2 1 1 1 1 1 0 0 0
5 5 5 5 5 5 5 5 5 5 5 5 5 5 4 4 4 4 4 4 4 3 3 3 3 3 3 3 2 2 2 2 2 1 1 1 1 1 1 0 0 -0 -0 -0
5 5 5 5 5 5 5 5 4 4 4 4 4 4 4 4 3 3 3 3 3 3 3 2 2 2 2 2 2 1 1 1 1 1 1 1 0 0 -0 -0 -0 -1 -1 -1
4 4 4 4 4 4 4 4 4 4 4 4 3 3 3 3 3 3 3 2 2 2 2 2 2 1 1 1 1 1 1 1 0 0 0 -0 -0 -0 -1 -1 -1 -1 -1 -1
Wind_Speed
7 6 4 5 6 6 7 8 9 9 9 10 7 6 5 3 2 1 1 1 2 2 2 2 2 3 4 4 4 5 5 6 6 5 5 4 4 4 4 4 5 4 4 4
4 4 4 6 7 7 8 7 8 7 9 6 4 2 2 3 3 2 2 3 3 2 2 3 3 3 3 4 4 5 6 6 5 4 4 4 5 4 4 4 4 3 4 4
4 4 2 6 7 7 5 4 6 7 8 3 1 3 4 4 3 4 4 3 3 4 4 4 4 4 4 4 4 5 6 5 5 5 5 4 4 4 4 4 4 4 4 4
1 0 6 7 4 5 6 5 5 4 4 4 5 4 3 3 4 4 4 4 4 4 4 3 2 2 2 2 4 5 5 5 5 5 5 4 4 4 4 4 4 4 4 4
2 3 7 6 3 3 5 5 3 4 3 2 1 2 3 3 3 5 5 4 4 3 3 2 2 2 2 2 3 3 4 4 5 5 5 5 5 5 4 4 4 4 4 4
3 3 6 6 4 2 3 5 3 4 4 3 2 0 5 4 2 3 2 2 2 1 0 1 1 2 2 2 3 4 4 4 4 5 6 6 6 5 4 4 4 4 3 4
5 5 7 6 3 2 3 6 3 4 4 4 4 6 4 3 2 2 1 1 1 1 1 1 1 2 2 2 3 4 3 3 3 4 5 5 4 4 4 4 4 3 3 3
5 5 7 3 2 4 6 3 2 3 3 3 4 3 2 2 2 1 0 0 1 1 0 0 1 2 2 2 2 1 2 2 2 3 3 3 3 3 4 4 4 3 3 2
7 7 5 3 4 4 3 3 3 2 2 3 2 2 2 2 2 2 1 2 1 2 0 1 0 1 2 2 1 2 2 2 2 2 2 2 3 3 3 3 3 3 3 3
4 7 6 5 4 3 2 3 3 2 1 2 2 3 2 2 2 2 2 2 1 2 1 1 1 1 1 1 1 3 3 2 2 2 2 2 2 3 3 3 3 3 3 3
5 6 5 5 4 3 2 2 2 2 1 2 3 3 3 3 3 2 2 2 2 2 2 2 1 1 1 0 2 2 2 2 2 2 3 2 2 2 3 3 4 4 4 4
7 6 5 6 6 3 2 2 2 1 2 2 2 3 3 3 3 2 2 1 1 2 2 2 1 1 1 1 2 3 2 2 2 2 2 3 2 1 1 1 2 3 4 4
7 4 4 5 4 2 2 3 3 2 2 3 3 2 2 2 2 2 1 2 3 3 3 2 1 1 2 1 2 3 3 2 2 2 3 3 3 3 1 1 1 1 2 3
4 2 3 3 4 3 2 2 2 1 2 2 2 1 1 1 1 1 2 3 3 2 2 2 2 2 2 1 2 2 2 2 2 2 2 2 3 3 3 2 1 0 0 1
4 4 5 3 2 2 2 1 1 2 2 2 1 1 1 1 2 3 3 2 2 2 2 2 2 2 1 1 2 2 2 1 1 2 2 2 2 2 2 2 2 1 0 1
3 2 1 1 2 3 2 2 2 4 3 2 2 2 2 2 2 2 1 2 2 2 2 2 2 2 1 2 2 1 1 2 2 2 2 2 2 2 2 2 2 1 1 0
3 3 2 3 4 4 4 4 4 5 3 3 3 3 2 1 0 0 0 1 1 2 1 2 2 1 1 2 2 1 1 2 3 2 2 2 2 2 2 2 2 1 1 1
5 5 5 5 4 4 4 4 3 4 4 4 3 2 1 2 2 2 1 1 1 1 1 1 1 1 1 2 2 2 2 2 2 2 2 2 2 2 2 2 2 1 0 0
5 4 4 4 4 4 3 3 3 4 3 3 2 2 2 2 2 2 1 2 1 1 2 1 1 1 1 1 2 2 2 2 2 1 1 2 2 2 2 2 2 1 1 1
3 3 3 3 3 2 3 3 2 2 2 2 2 1 1 1 1 2 2 1 2 2 2 1 1 1 1 1 2 2 2 2 2 2 2 2 2 2 1 2 2 1 1 1
3 3 3 3 3 2 3 2 2 1 1 1 2 2 2 1 1 2 2 1 2 1 1 1 1 1 1 1 2 2 2 2 2 2 2 2 2 1 1 1 1 1 1 1
2 2 3 3 3 3 2 1 1 1 1 1 1 2 2 1 0 0 1 2 2 1 0 0 1 1 1 2 2 2 2 2 1 1 1 2 2 2 2 2 2 2 1 2
2 2 3 3 3 2 1 1 1 1 1 1 2 2 2 2 2 2 1 2 1 1 1 1 1 2 2 2 2 2 2 2 2 2 2 2 2 2 2 2 2 2 2 2
2 2 2 2 1 1 1 2 1 1 1 1 1 2 2 1 1 1 1 1 1 1 1 1 1 2 2 2 2 1 1 1 1 1 1 2 2 2 2 2 2 2 2 3
2 2 1 1 1 2 2 1 1 0 0 0 0 0 1 2 2 1 1 1 1 1 0 0 1 2 2 1 1 1 1 1 1 1 1 1 1 2 2 2 2 2 2 3
2 2 2 2 2 2 2 2 1 1 1 1 1 0 0 0 1 1 1 1 1 1 1 1 1 1 1 1 1 1 1 1 1 1 1 1 2 2 2 2 3 3 3 3
1 1 1 1 1 1 2 2 2 2 2 2 1 1 1 1 1 1 2 1 1 1 1 0 0 1 1 1 1 1 1 1 1 1 1 2 2 2 3 3 3 3 3 3
Wind_Direction
238 243 223 229 232 210 205 206 211 236 236 251 250 246 248 244 222 169 266 256 223 220 233 225 214 208 200 203 193 183 180 189 203 203 192 184 183 188 186 186 192 191 185 192
267 257 235 249 247 231 231 228 228 243 257 259 247 240 251 237 201 198 226 242 244 233 231 231 224 222 214 207 200 183 187 201 201 188 186 189 189 184 181 182 181 180 186 191
258 290 319 263 236 218 219 223 203 226 247 258 244 247 243 236 219 221 228 228 233 236 231 232 228 215 214 216 193 183 193 197 190 185 186 193 188 176 183 186 178 184 198 195
228 43 238 250 246 214 213 236 219 220 239 225 224 245 253 224 214 233 236 234 237 240 246 245 226 217 215 195 181 185 193 193 185 180 184 183 173 183 195 190 188 197 198 201
154 224 271 290 281 203 205 244 228 218 231 240 228 26 314 259 231 234 237 239 238 236 238 236 212 188 172 184 179 180 197 202 196 185 183 181 184 191 192 186 196 202 199 196
156 201 242 251 274 241 158 257 246 199 211 215 124 155 264 266 256 256 260 251 243 245 150 193 209 146 143 180 181 204 215 212 198 185 186 190 195 193 186 187 198 197 204 207
193 224 258 257 278 104 168 252 258 206 208 197 199 221 244 262 259 241 249 237 153 132 155 218 180 146 155 180 214 222 208 188 181 184 189 190 185 180 173 180 179 189 205 218
180 210 251 259 130 183 231 267 257 232 220 213 233 250 263 256 246 228 272 124 109 114 291 284 151 149 175 230 237 199 168 162 169 172 181 177 168 169 163 164 169 186 197 215
200 220 248 249 227 257 247 250 256 243 242 205 217 246 262 260 248 232 209 185 159 149 139 337 340 169 209 258 202 148 144 154 159 156 157 153 156 162 157 160 172 193 197 206
247 262 263 267 267 277 258 258 266 237 208 189 220 239 247 253 259 255 243 226 181 147 155 294 311 328 255 230 153 143 150 162 163 159 155 148 152 163 166 176 186 195 201 210
253 272 293 283 266 265 281 301 310 306 252 218 206 237 239 246 249 245 246 244 205 185 202 244 298 322 320 178 148 151 160 167 169 167 163 157 158 173 182 195 194 198 207 202
237 239 229 261 277 262 252 275 272 277 302 286 221 230 243 253 248 230 221 218 208 206 204 218 212 287 306 264 174 164 167 179 176 170 167 159 147 95 42 181 200 199 195 195
245 257 239 263 285 273 243 259 265 251 242 264 272 244 243 259 247 228 217 207 213 219 214 203 199 245 274 246 189 182 177 181 176 170 171 170 166 166 179 8 99 171 189 193
247 241 261 263 272 290 283 279 281 279 270 257 259 271 254 260 249 228 233 229 213 195 196 195 198 248 261 236 190 189 177 182 170 173 173 175 178 181 178 176 185 283 256 191
256 236 229 244 276 300 304 312 335 310 300 309 306 280 248 240 241 242 240 207 152 158 199 201 214 255 263 185 179 175 168 168 159 156 154 159 162 166 170 174 178 187 9 343
257 271 241 241 268 288 299 293 274 278 277 274 285 280 263 246 237 234 200 161 154 193 219 207 231 252 209 161 158 165 177 162 136 135 133 129 133 148 156 158 161 166 190 236
212 244 259 272 273 277 273 263 252 255 255 246 252 263 256 232 195 141 92 136 166 196 213 207 228 231 152 146 148 160 151 148 131 119 129 140 150 161 160 149 152 161 191 170
217 219 220 225 241 257 272 271 258 248 243 240 234 224 202 191 205 219 210 124 85 45 335 249 202 156 147 140 140 141 143 139 139 145 148 152 151 149 142 144 149 147 95 63
231 225 233 238 237 237 252 263 266 257 250 227 203 210 217 211 204 200 168 144 153 252 288 282 171 104 118 157 133 133 142 142 136 139 152 157 147 141 152 160 163 166 167 165
249 239 238 248 246 243 254 262 260 264 255 204 184 184 201 225 200 173 156 185 234 232 237 221 122 111 135 157 135 133 142 147 152 151 148 152 157 155 164 178 179 175 180 200
260 259 255 250 257 259 250 244 228 238 256 191 180 194 203 220 190 157 147 240 286 269 181 175 124 143 172 161 134 122 132 142 156 166 166 168 167 166 174 181 183 189 198 209
273 260 260 257 256 272 272 244 213 209 201 192 202 181 164 173 178 160 212 221 244 238 112 146 158 181 167 118 113 123 130 139 150 157 161 165 171 185 196 195 199 209 212 217
281 270 260 253 245 253 282 260 210 189 191 197 201 198 197 206 196 183 253 267 239 193 129 178 179 156 124 106 120 133 142 147 154 164 177 187 194 197 201 202 209 216 218 230
281 279 271 261 207 171 242 255 232 214 206 204 204 199 184 184 246 232 215 223 173 125 128 176 153 144 110 101 114 131 150 160 170 180 190 194 199 202 209 213 219 227 230 232
267 268 286 245 206 220 224 223 180 150 131 130 271 240 200 183 188 203 178 175 161 98 81 26 101 100 93 106 122 144 167 188 193 187 196 204 211 211 219 226 229 233 237 243
251 236 235 232 223 215 199 177 179 200 188 209 275 263 202 147 157 147 134 122 110 90 71 59 80 88 93 116 139 172 185 215 257 224 210 220 225 227 236 242 242 243 246 250
254 237 255 302 292 226 187 174 182 204 205 196 219 228 192 157 138 128 118 110 99 85 76 70 98 126 134 147 177 204 192 197 210 214 220 226 231 241 243 241 247 251 253 255
Height
1495 1492 1492 1492 1492 1494 1497 1498 1502 1497 1494 1486 1483 1482 1481 1480 1481 1481 1482 1482 1482 1483 1484 1485 1485 1486 1487 1488 1489 1491 1492 1494 1495 1496 1498 1499 1500 1502 1503 1504 1505 1506 1507 1508
1494 1490 1490 1491 1489 1489 1490 1490 1491 1490 1488 1480 1479 1480 1479 1479 1479 1479 1480 1480 1481 1481 1482 1482 1483 1484 1484 1485 1486 1487 1488 1490 1491 1493 1494 1495 1496 1498 1499 1500 1501 1502 1503 1504
1500 1493 1491 1493 1486 1484 1485 1484 1485 1487 1483 1479 1479 1478 1478 1477 1477 1477 1478 1478 1479 1479 1480 1480 1481 1481 1481 1482 1483 1484 1485 1486 1487 1488 1490 1491 1492 1493 1494 1496 1497 1498 1499 1500
1502 1497 1501 1487 1478 1477 1479 1479 1479 1478 1477 1476 1476 1476 1476 1476 1475 1475 1476 1476 1476 1477 1477 1478 1478 1478 1478 1479 1479 1480 1481 1482 1483 1484 1485 1487 1488 1489 1491 1492 1493 1494 1495 1496
1505 1503 1495 1484 1477 1477 1478 1478 1475 1475 1474 1474 1474 1475 1475 1474 1474 1474 1474 1474 1475 1475 1475 1475 1476 1475 1475 1475 1475 1476 1477 1478 1479 1480 1481 1482 1483 1485 1486 1488 1489 1490 1491 1492
1503 1501 1497 1483 1474 1472 1475 1478 1472 1471 1472 1473 1474 1478 1474 1472 1471 1471 1471 1472 1472 1472 1473 1473 1473 1473 1473 1472 1472 1473 1473 1474 1476 1477 1477 1478 1479 1481 1482 1483 1485 1486 1487 1488
1499 1498 1489 1476 1472 1472 1483 1478 1469 1468 1469 1470 1471 1472 1471 1469 1469 1469 1469 1469 1470 1470 1470 1470 1470 1470 1470 1469 1469 1470 1471 1471 1472 1473 1474 1475 1476 1477 1478 1479 1481 1482 1483 1484
1496 1496 1489 1472 1472 1475 1473 1468 1467 1466 1466 1467 1468 1468 1467 1467 1467 1467 1467 1467 1467 1467 1467 1468 1468 1467 1467 1466 1467 1467 1468 1468 1469 1469 1471 1472 1473 1473 1474 1475 1476 1478 1479 1479
1483 1480 1472 1469 1469 1468 1467 1466 1466 1465 1465 1466 1466 1465 1465 1465 1464 1465 1465 1465 1465 1465 1465 1465 1465 1465 1464 1464 1464 1464 1465 1465 1466 1467 1467 1468 1469 1470 1471 1471 1472 1474 1475 1475
1477 1471 1468 1467 1466 1466 1466 1465 1464 1464 1464 1464 1464 1463 1463 1463 1462 1462 1462 1462 1462 1462 1463 1463 1463 1463 1462 1462 1462 1462 1462 1463 1463 1464 1464 1465 1466 1466 1467 1468 1468 1469 1470 1471
1473 1468 1466 1464 1464 1464 1463 1463 1463 1462 1462 1462 1462 1461 1461 1460 1460 1460 1460 1460 1460 1460 1460 1460 1461 1460 1460 1460 1460 1460 1460 1460 1460 1461 1461 1462 1462 1463 1463 1464 1465 1466 1466 1467
1468 1464 1464 1461 1461 1461 1461 1461 1461 1460 1460 1460 1459 1459 1458 1458 1458 1457 1457 1457 1457 1457 1457 1458 1458 1458 1458 1458 1458 1458 1457 1457 1458 1458 1458 1459 1459 1460 1461 1462 1462 1463 1463 1464
1461 1460 1460 1459 1459 1459 1459 1458 1458 1458 1457 1457 1457 1456 1455 1455 1455 1455 1454 1454 1454 1455 1455 1455 1456 1456 1456 1456 1456 1455 1455 1455 1455 1455 1456 1456 1456 1457 1457 1458 1459 1459 1460 1460
1457 1457 1456 1456 1456 1456 1456 1456 1455 1455 1455 1455 1454 1453 1453 1453 1452 1452 1452 1452 1452 1452 1452 1453 1453 1453 1453 1453 1453 1453 1453 1453 1453 1453 1453 1453 1454 1454 1454 1455 1455 1456 1457 1457
1454 1454 1454 1453 1453 1453 1453 1453 1452 1452 1452 1452 1451 1451 1450 1450 1450 1450 1450 1450 1450 1450 1450 1450 1450 1451 1451 1451 1450 1450 1450 1450 1450 1450 1451 1451 1451 1451 1451 1452 1452 1453 1453 1454
1451 1451 1450 1450 1450 1450 1450 1450 1449 1449 1448 1449 1448 1448 1448 1448 1447 1447 1447 1447 1447 1447 1447 1447 1447 1448 1448 1448 1447 1447 1447 1447 1447 1447 1448 1448 1448 1448 1448 1449 1449 1450 1450 1451
1447 1447 1447 1447 1447 1447 1447 1447 1446 1446 1446 1446 1446 1445 1445 1445 1444 1444 1444 1444 1444 1444 1444 1444 1444 1445 1444 1444 1444 1444 1444 1444 1444 1444 1445 1445 1445 1446 1446 1446 1446 1447 1448 1448
1443 1444 1444 1444 1444 1444 1443 1444 1443 1443 1443 1443 1443 1443 1442 1442 1441 1441 1442 1442 1442 1442 1442 1442 1442 1442 1441 1441 1441 1441 1441 1441 1441 1441 1442 1442 1443 1443 1443 1444 1444 1444 1445 1445
1439 1440 1440 1440 1441 1441 1441 1440 1440 1440 1439 1439 1440 1440 1440 1439 1439 1439 1439 1439 1439 1439 1439 1440 1440 1439 1439 1439 1439 1439 1439 1439 1439 1439 1439 1440 1440 1441 1441 1441 1441 1442 1442 1442
1436 1436 1437 1437 1437 1438 1437 1437 1437 1437 1436 1437 1437 1437 1436 1436 1437 1437 1437 1437 1437 1437 1437 1437 1437 1437 1437 1436 1436 1436 1436 1436 1436 1436 1436 1437 1437 1437 1438 1438 1438 1439 1439 1439
1432 1433 1433 1434 1434 1434 1434 1434 1434 1434 1434 1434 1434 1434 1434 1434 1434 1434 1434 1434 1435 1435 1435 1435 1434 1434 1434 1434 1434 1433 1433 1433 1434 1434 1434 1434 1435 1435 1435 1435 1435 1436 1436 1435
1430 1430 1430 1430 1430 1431 1431 1431 1431 1431 1431 1431 1431 1431 1431 1431 1432 1432 1432 1432 1432 1432 1432 1432 1432 1432 1432 1431 1431 1431 1431 1431 1431 1432 1432 1432 1432 1432 1432 1432 1432 1432 1432 1432
1427 1427 1427 1427 1427 1427 1428 1428 1429 1429 1429 1429 1429 1429 1429 1429 1429 1429 1429 1430 1429 1429 1429 1429 1429 1429 1429 1429 1429 1429 1429 1429 1429 1429 1429 1429 1429 1429 1429 1429 1429 1429 1428 1428
1424 1424 1424 1424 1424 1424 1425 1425 1426 1426 1426 1427 1427 1427 1427 1427 1427 1427 1427 1427 1427 1427 1427 1427 1427 1427 1427 1427 1427 1427 1427 1427 1427 1427 1427 1427 1427 1426 1426 1426 1426 1425 1425 1424
1422 1422 1422 1421 1421 1422 1422 1423 1423 1423 1424 1424 1424 1424 1424 1424 1425 1424 1425 1425 1425 1425 1424 1425 1425 1425 1424 1424 1424 1424 1424 1424 1424 1424 1424 1424 1424 1423 1423 1422 1422 1421 1421 1420
1419 1419 1419 1419 1419 1419 1419 1420 1420 1421 1421 1421 1421 1422 1422 1422 1422 1422 1422 1422 1422 1422 1422 1422 1422 1422 1422 1421 1421 1421 1421 1421 1421 1421 1421 1421 1420 1420 1419 1419 1418 1417 1417 1416
1416 1416 1416 1416 1416 1417 1417 1417 1418 1418 1418 1419 1418 1419 1419 1419 1420 1420 1420 1420 1420 1420 1420 1420 1419 1419 1419 1419 1419 1419 1419 1418 1418 1418 1418 1417 1417 1416 1415 1415 1414 1413 1412 1411